This demonstration page uses our WeatherBlox Daily Observations layout. Learn more.

Left ArrowRight Arrow

41.86663, -103.66717

Hourly Observations for May 29, 2022

Temp ( °F °C ) Dew Point ( °F °C ) Humidity (%) Winds ( mph kmh ) Pressure ( in mb ) Visibility ( mi km ) Precip ( " mm )
12:53 am 00:53 Clear 59 15 41 5 51 51 NW 9 15 29.41 996 10 16 0.00 0.00
1:53 am 01:53 Clear 56 13.3 40 4.4 55 55 NNW 7 11 29.41 996 10 16 0.00 0.00
2:53 am 02:53 Clear 55 12.8 40 4.4 57 57 NW 3 6 29.42 996 10 16 0.00 0.00
3:53 am 03:53 Clear 51 10.6 40 4.4 66 66 WNW 6 9 29.42 996 10 16 0.00 0.00
4:53 am 04:53 Clear 51 10.6 40 4.4 66 66 NW 5 7 29.42 996 10 16 0.00 0.00
5:53 am 05:53 Sunny 54 12.2 42 5.6 64 64 W 7 11 29.45 997 10 16 0.00 0.00
6:53 am 06:53 Sunny 56 13.3 44 6.7 65 65 NW 5 7 29.43 997 10 16 0.00 0.00
7:53 am 07:53 Sunny 60 15.6 46 7.8 60 60 WNW 6 9 29.44 997 10 16 0.00 0.00
8:53 am 08:53 Mostly Sunny 62 16.7 47 8.3 58 58 NNW 5 7 29.41 996 10 16 0.00 0.00
9:53 am 09:53 Mostly Sunny 66 18.9 47 8.3 50 50 VRB 3 6 29.41 996 10 16 0.00 0.00
10:53 am 10:53 Sunny 68 20 46 7.8 45 45 Calm 29.40 996 10 16 0.00 0.00
11:53 am 11:53 Sunny 75 23.9 41 5 29 29 VRB 6 9 29.38 995 10 16 0.00 0.00
12:53 pm 12:53 Sunny 77 25 39 3.9 26 26 VRB 3 6 29.34 994 10 16 0.00 0.00
1:53 pm 13:53 Sunny 78 25.6 39 3.9 25 25 SE 7 11 29.31 993 10 16 0.00 0.00
2:53 pm 14:53 Sunny 80 26.7 40 4.4 24 24 SE 9 15 29.29 992 10 16 0.00 0.00
3:19 pm 15:19 Partly Cloudy with Nearby Thunderstorms 63 17.2 43 6.1 48 48 W 25 41 29.33 993 5 8 0.00 0.00
3:29 pm 15:29 Mostly Cloudy with Thunderstorms 60 15.6 46 7.8 60 60 W 31 50 29.37 994 7 11 0.00 0.00
3:53 pm 15:53 Cloudy with Thunderstorms 56 13.3 50 10 81 81 W 24 39 29.46 998 5 8 0.08 2.03
4:22 pm 16:22 Cloudy with Nearby Thunderstorms 55 12.8 51 10.6 87 87 W 16 26 29.48 998 5 8 0.06 1.52
4:43 pm 16:43 Cloudy with Rain 55 12.8 51 10.6 87 87 W 14 22 29.49 998 5 8 0.11 2.79
4:53 pm 16:53 Cloudy with Rain 56 13.3 50 10 81 81 NW 7 11 29.50 999 5 8 0.13 3.30
5:53 pm 17:53 Mostly Cloudy with Light Rain 57 13.9 52 11.1 83 83 N 7 11 29.42 996 10 16 0.08 2.03
6:53 pm 18:53 Cloudy 58 14.4 52 11.1 81 81 S 9 15 29.44 997 10 16 0.00 0.00
7:53 pm 19:53 Mostly Cloudy 57 13.9 52 11.1 83 83 NE 7 11 29.42 996 10 16 0.02 0.51
8:53 pm 20:53 Partly Cloudy 56 13.3 51 10.6 84 84 NE 12 19 29.46 998 10 16 0.00 0.00
9:53 pm 21:53 Cloudy 56 13.3 50 10 81 81 SE 9 15 29.48 998 10 16 0.00 0.00
10:53 pm 22:53 Mostly Cloudy 55 12.8 51 10.6 87 87 SE 6 9 29.44 997 10 16 0.00 0.00
11:53 pm 23:53 Partly Cloudy 54 12.2 51 10.6 90 90 SE 5 7 29.41 996 10 16 0.00 0.00

Powered by AerisWeather